Weather History for Frankfort, KY

Change the Weather History Date:

Monday, July 15, 2013

  Actual Average Record
Temperature  
Mean Temperature 80 °F 76 °F  
Max Temperature 90 °F 87 °F 111 °F (1936)
Min Temperature 70 °F 66 °F 50 °F (1926)
Degree Days  
Heating Degree Days 0 0  
Month to date heating degree days 0 0  
Since 1 June heating degree days 2 10  
Since 1 July heating degree days 0 0  
Cooling Degree Days 15 11  
Month to date cooling degree days 138 165  
Year to date cooling degree days 498 500  
Since 1 June cooling degree days 379 401  
Growing Degree Days 30 (Base 50)    
Moisture  
Dew Point 69 °F    
Average Humidity 70    
Maximum Humidity 90    
Minimum Humidity 50    
Precipitation  
Precipitation 0.00 in 0.15 in 2.85 in (1968)
Month to date precipitation 5.63 2.02  
Year to date precipitation 30.81 25.58  
Sea Level Pressure  
Sea Level Pressure 30.25 in    
Wind  
Wind Speed 3 mph (ESE)    
Max Wind Speed 12 mph    
Max Gust Speed 15 mph    
Visibility 10 miles    
Events      
T = Trace of Precipitation, MM = Missing Value Source: NWS Daily Summary

Daily Weather History Graph

Daily Weather History Graph

Search for Another Location

Airport:

Trip Planner

Search our weather history database for the weather conditions in past years. The results will help you decide how hot, cold, wet, or windy it might be!

Date:

Astronomy

Jul. 15, 2013 Rise Set
Actual Time 6:28 AM EDT 9:02 PM EDT
Civil Twilight 5:58 AM EDT 9:32 PM EDT
Nautical Twilight 5:19 AM EDT 10:10 PM EDT
Astronomical Twilight 4:37 AM EDT 10:53 PM EDT
Moon 1:40 PM EDT (7/15) 12:21 AM EDT (7/15)
Length of Visible Light 15h 34m
Length of Day
14h 33m
Waxing Crescent, 45% of the Moon is Illuminated
Jul 15
Waxing Crescent
Jul 15
First Quarter
Jul 22
Full
Jul 29
Last Quarter
Aug 6
New

Hourly Weather History & Observations

Time (EDT) Temp. Heat Index Dew Point Humidity Pressure Visibility Wind Dir Wind Speed Gust Speed Precip Events Conditions
12:53 AM 75.0 °F - 72.0 °F 90% 30.21 in 10.0 mi East 3.5 mph - N/A   Scattered Clouds
1:53 AM 75.0 °F - 71.1 °F 87% 30.20 in 10.0 mi SE 4.6 mph - N/A   Clear
2:53 AM 73.9 °F - 70.0 °F 87% 30.21 in 10.0 mi SE 4.6 mph - N/A   Clear
3:53 AM 73.0 °F - 70.0 °F 90% 30.21 in 10.0 mi SE 3.5 mph - N/A   Scattered Clouds
4:53 AM 73.0 °F - 69.1 °F 87% 30.22 in 10.0 mi Calm Calm - N/A   Overcast
5:53 AM 72.0 °F - 68.0 °F 87% 30.24 in 10.0 mi Calm Calm - N/A   Clear
6:53 AM 71.1 °F - 68.0 °F 90% 30.26 in 10.0 mi Calm Calm - N/A   Clear
7:53 AM 75.0 °F - 69.1 °F 82% 30.27 in 10.0 mi SE 3.5 mph - N/A   Clear
8:53 AM 78.1 °F - 69.1 °F 74% 30.29 in 10.0 mi SSE 4.6 mph - N/A   Clear
9:53 AM 81.0 °F 84.4 °F 70.0 °F 69% 30.29 in 10.0 mi SSE 5.8 mph - N/A   Clear
10:53 AM 82.9 °F 87.0 °F 70.0 °F 65% 30.29 in 10.0 mi Variable 3.5 mph - N/A   Clear
11:53 AM 84.9 °F 89.4 °F 70.0 °F 61% 30.29 in 10.0 mi ESE 5.8 mph - N/A   Clear
12:53 PM 86.0 °F 88.2 °F 66.0 °F 51% 30.29 in 10.0 mi Calm Calm - N/A   Clear
1:53 PM 88.0 °F 90.7 °F 66.9 °F 49% 30.27 in 10.0 mi Variable 3.5 mph - N/A   Partly Cloudy
2:53 PM 89.1 °F 94.1 °F 70.0 °F 53% 30.26 in 10.0 mi Variable 4.6 mph - N/A   Mostly Cloudy
3:53 PM 88.0 °F 92.1 °F 69.1 °F 53% 30.25 in 10.0 mi East 3.5 mph - N/A   Overcast
4:53 PM 89.1 °F 92.9 °F 68.0 °F 50% 30.24 in 10.0 mi ENE 6.9 mph - N/A   Scattered Clouds
5:53 PM 89.1 °F 93.7 °F 69.1 °F 52% 30.22 in 10.0 mi ENE 9.2 mph - N/A   Partly Cloudy
6:53 PM 88.0 °F 92.1 °F 69.1 °F 53% 30.22 in 10.0 mi East 5.8 mph - N/A   Partly Cloudy
7:53 PM 86.0 °F 90.1 °F 69.1 °F 57% 30.22 in 10.0 mi East 4.6 mph - N/A   Clear
8:53 PM 82.9 °F 87.0 °F 70.0 °F 65% 30.22 in 10.0 mi Calm Calm - N/A   Clear
9:53 PM 78.1 °F - 71.1 °F 79% 30.25 in 10.0 mi Calm Calm - N/A   Clear
10:53 PM 75.9 °F - 71.1 °F 85% 30.26 in 10.0 mi Calm Calm - N/A   Clear
11:53 PM 75.0 °F - 71.1 °F 87% 30.27 in 10.0 mi Calm Calm - N/A   Clear